Preview of NWS' New Version of Forecast
This preview is not operational and should not be used for support decisions.
Latest weather observations around

Camarillo, Camarillo Airport (KCMA)

Using English Units (Switch to International System of Units)
Date/ Time (PDT) Wind (mph) Vis. (mi) Weather Sky Cond. Temp (°F) Rel. Humidity Wind Chill (°F) Heat Index (°F) Pressure Precip. (in)
Air Dwpt 6 hour Altimeter (inHg) Sea level (inHg) 1 hr 3 hr 6 hr
Max Min
Aug 19 07:20 Calm 10 Mostly Clear FEW008 62 55     78%     29.96        
Aug 19 06:55 WNW 5 9 Clear CLR 59 53     81%     29.95 29.98      
Aug 19 05:55 Calm 10 Clear CLR 59 53     81%     29.93 29.96      
Aug 19 04:55 ENE 6 10 Clear CLR 61 55     81%     29.92 29.95      
Aug 19 03:55 ENE 6 10 Clear CLR 60 54     80%     29.92 29.94      
Aug 19 02:55 NE 3 10 Clear CLR 61 55     81%     29.92 29.94      
Aug 19 01:55 Calm 10 Clear CLR 62 55     78%     29.91 29.93      
Aug 19 00:55 Calm 10 Clear CLR 63 56     78%     29.9 29.93      
Aug 18 23:55 ESE 3 10 Clear CLR 65 57     76%     29.9 29.93      
Aug 18 22:55 SE 3 10 Clear CLR 65 57     76%     29.9 29.93      
Aug 18 21:55 Calm 10 Clear CLR 66 57     73%     29.9 29.92      
Aug 18 20:55 W 5 10 Clear CLR 66 57     73%     29.89 29.91      
Aug 18 19:55 SW 6 10 Clear CLR 67 57     71%     29.88 29.9      
Aug 18 18:55 W 11 10 Clear CLR 70 58     66%     29.88 29.9      
Aug 18 17:55 W 10 10 Clear CLR 72 58     61%   72 29.88 29.9      
Aug 18 16:55 WSW 11 10 Clear CLR 74 58     57%   74 29.88 29.91      
Aug 18 15:55 WSW 9 10 Clear CLR 75 59     57%   75 29.89 29.91      
Aug 18 14:55 WSW 11 10 Mostly Clear FEW022 75 59     57%   75 29.91 29.93      
Aug 18 14:48 WSW 11 10 Partly Cloudy SCT022 74 59     60%   74 29.91        
Aug 18 14:33 WSW 11 10 Mostly Cloudy BKN022 75 59     57%   75 29.92        
Aug 18 13:55 SW 11 10 Clear CLR 75 59     57%   75 29.92 29.94      
Aug 18 12:55 SSW 9 10 Clear CLR 75 60     60%   75 29.92 29.94      
Aug 18 11:55 SW 10 10 Clear CLR 75 59     57%   75 29.93 29.95      
Aug 18 10:55 WSW 5 10 Clear CLR 74 57     56%   74 29.93 29.96      
Aug 18 09:55 5 10 Partly Cloudy SCT025 72 57     59%   72 29.93 29.95      
Aug 18 09:47 NW 7 10 Mostly Cloudy BKN025 71 57     61%   71 29.93        
Aug 18 09:36 6 10 Partly Cloudy SCT024 72 57     59%   72 29.93        
Aug 18 08:55 Calm 10 Cloudy OVC024 69 57     65%     29.92 29.94      
Aug 18 07:55 Calm 10 Cloudy OVC023 68 57     68%     29.91 29.93      
Aug 18 06:55 NW 3 9 Cloudy OVC018 66 59     78%     29.9 29.92      
Aug 18 06:29 NNW 3 9 Cloudy OVC016 65 59     81%     29.89        
Aug 18 05:55 NW 6 9 Cloudy OVC012 65 59     81%     29.88 29.9      
Aug 18 04:55 NNW 7 8 Cloudy OVC011 65 58     78%     29.88 29.9      
Aug 18 03:55 NW 5 10 Cloudy OVC011 65 58     78%     29.88 29.9      
Aug 18 02:55 W 5 10 Cloudy OVC011 65 58     78%     29.89 29.91      
Aug 18 01:55 WNW 5 10 Cloudy OVC011 65 58     78%     29.88 29.9      
Aug 18 00:55 W 6 10 Cloudy OVC012 65 58     78%     29.89 29.91      
Aug 17 23:55 Calm 10 Cloudy OVC012 65 58     78%     29.88 29.91      
Aug 17 22:55 SSW 3 10 Cloudy OVC013 65 58     78%     29.88 29.9      
Aug 17 22:08 WSW 3 10 Mostly Cloudy BKN013 65 58     78%     29.88        
Aug 17 21:55 SW 3 10 Mostly Clear FEW013 65 58     78%     29.87 29.9      
Aug 17 20:55 W 6 10 Clear CLR 65 58     78%     29.86 29.88      
Aug 17 19:55 W 7 10 Clear CLR 67 59     76%     29.84 29.87      
Aug 17 18:55 WSW 6 10 Clear CLR 70 58     66%     29.83 29.85      
Aug 17 17:55 SSW 7 10 Clear CLR 71 58     63%   71 29.84 29.86      
Aug 17 16:55 SW 9 10 Clear CLR 71 58     63%   71 29.85 29.87      
Aug 17 15:55 SW 8 10 Partly Cloudy SCT021 73 59     61%   73 29.87 29.89      
Aug 17 14:55 W 13 10 Mostly Cloudy BKN021 73 59     61%   73 29.88 29.91      
Aug 17 13:55 SW 11 10 Mostly Clear FEW020 73 59     61%   73 29.9 29.92      
Aug 17 12:55 SSW 9 10 Clear CLR 73 59     61%   73 29.9 29.93      
Aug 17 11:55 SSW 10 10 Clear CLR 74 57     56%   74 29.91 29.93      
Aug 17 10:55 SW 7 10 Mostly Clear FEW025 73 57     57%   73 29.92 29.94      
Aug 17 09:55 W 3 9 Clear CLR 71 56     59%   71 29.92 29.94      
Aug 17 09:30 S 6 9 Partly Cloudy SCT024 70 56     61%     29.92        
Aug 17 08:55 3 9 Cloudy OVC023 69 55     61%     29.92 29.94      
Aug 17 07:55 S 5 10 Cloudy OVC021 67 56     68%     29.92 29.94      
Aug 17 06:55 Calm 7 Cloudy OVC017 66 58     75%     29.91 29.93      
Aug 17 06:31 N 3 8 Cloudy OVC016 66 58     75%     29.9        
Aug 17 05:55 N 3 8 Cloudy OVC014 66 58     75%     29.89 29.91      
Aug 17 04:55 SE 5 9 Cloudy OVC013 66 58     75%     29.89 29.92      
Aug 17 03:55 Calm 10 Cloudy OVC013 66 58     75%     29.89 29.91      
Aug 17 02:55 Calm 10 Cloudy OVC012 66 58     75%     29.89 29.92      
Aug 17 01:55 Calm 10 Cloudy OVC011 65 58     78%     29.9 29.93      
Aug 17 01:11 Calm 10 Cloudy OVC010 65 58     78%     29.91        
Aug 17 00:55 Calm 10 Cloudy OVC009 65 58     78%     29.91 29.93      
Aug 16 23:55 SW 3 10 Cloudy OVC009 65 58     78%     29.91 29.93      
Aug 16 22:55 Calm 10 Cloudy OVC009 65 58     78%     29.91 29.93      
Aug 16 21:55 Calm 10 Cloudy OVC009 64 58     81%     29.91 29.93      
Aug 16 20:55 SW 5 10 Cloudy OVC008 64 58     81%     29.9 29.93      
Aug 16 20:20 SSW 6 10 Cloudy OVC009 64 58     81%     29.89        
Aug 16 19:55 SSW 8 10 Mostly Cloudy BKN011 65 58     78%     29.88 29.91      
Aug 16 19:53 SW 8 10 Mostly Cloudy BKN011 64 57     77%     29.88        
Aug 16 18:55 SW 9 10 Clear CLR 67 58     73%     29.87 29.89      
Aug 16 17:55 SW 8 10 Clear CLR 70 59     68%     29.86 29.89      
Aug 16 16:55 SSW 9 10 Clear CLR 71 59     66%   71 29.87 29.89      
Aug 16 15:55 SW 10 10 Clear CLR 73 60     64%   73 29.88 29.91      
Aug 16 14:55 W 9 10 Clear   73 60     64%   73 29.9 29.92      
Aug 16 13:55 SW 11 10 Clear CLR 74 60     62%   74 29.92 29.94      
Aug 16 12:55 SW 13 8 Clear CLR 73 59     61%   73 29.93 29.95      
Aug 16 11:55 SSW 13 8 Clear CLR 74 60     62%   74 29.94 29.96      
Aug 16 10:55 WSW 8 10 Clear CLR 72 60     66%   72 29.95 29.97      
Aug 16 09:55 Calm 6 Haze CLR 70 59     68%     29.95 29.98      
Aug 16 09:39 Calm 6 Haze SCT012 69 58     68%     29.96        
Aug 16 08:55 Calm 5 Haze OVC011 66 58     75%     29.96 29.98      
Aug 16 08:50 Calm 5 Haze OVC010 66 57     73%     29.96        
Aug 16 07:55 NNE 3 6 Haze OVC009 65 58     78%     29.95 29.97      
Aug 16 06:55 Calm 5 Haze OVC007 64 58     81%     29.93 29.96      
Aug 16 06:20 Calm 6 Haze OVC007 64 58     81%     29.92        
Aug 16 05:55 Calm 5 Haze OVC006 64 59     84%     29.92 29.94      
Aug 16 04:55 Calm 6 Haze OVC006 64 59     84%     29.9 29.93      
Aug 16 04:12 Calm 6 Haze OVC005 64 59     84%     29.89        
Aug 16 03:55 Calm 5 Haze OVC004 64 59     84%     29.89 29.92      
Aug 16 02:55 NNW 3 5 Fog/Mist OVC003 63 59     87%     29.9 29.92      
Aug 16 01:55 W 6 3 Fog/Mist OVC002 63 59     87%     29.9 29.92      
Aug 16 01:44 W 6 3 Fog/Mist OVC002 63 59     87%     29.9        
Aug 16 01:33 WSW 6 2 Fog/Mist OVC002 62 59     90%     29.9        
May 14 21:55 W 5 10 Clear CLR 57 49     74%     29.99 30.01      
May 12 11:55 SSW 10 10 Cloudy SCT028 OVC048 62 50     65%     29.98 30      
May 12 07:55 W 5 6 Haze FEW010 OVC017 57 52     83%     29.94 29.97      
May 12 04:34 W 3 7 Cloudy FEW009 BKN027 OVC050 56 52     87%     29.89        
May 12 04:26 WSW 3 7 Cloudy BKN029 OVC050 56 52     87%     29.89        
May 11 21:55 W 5 8 Cloudy BKN010 OVC021 56 51     84%     29.86 29.88      
May 11 08:55 Calm 5 Haze BKN012 OVC018 58 53     84%     29.87 29.89      
Jun 12 06:55 Calm 10 Clear CLR 53 47     80%     30.02 30.04      
Jun 11 18:55   10 Clear CLR 65 50     58%     29.9 29.93      
Jun 10 23:55 Calm 10 Clear CLR 59 54     83%     29.86 29.88      
Jun 09 15:47 W 11 10 Mostly Cloudy BKN014 68 60     76%     29.91        
Jun 09 14:55 W 13 10 Mostly Clear FEW022 72 58     61%   72 29.92 29.94      
Jun 08 21:55 SE 5 10 Clear CLR 59 54     83%     29.94 29.96      
Jun 08 14:55 W 11 10 Cloudy OVC022 67 57     71%     30.01 30.03      
Jun 08 08:53   6 Fog/Mist OVC013 63 57     83%     30.01        
Jun 08 04:55 Calm 10 Cloudy FEW010 OVC019 61 57     87%     29.98 30      
Jun 08 01:18 W 7 10 Cloudy FEW008 OVC014 61 58     90%     29.98        
Jun 07 11:55 SSW 6 8 Cloudy SCT014 OVC019 65 59     81%     29.98 30      
Jun 07 06:38 Calm 6 Fog/Mist SCT007 OVC014 59 58     96%     29.93        
Jun 06 02:31 W 3 2.5 Haze OVC005 59 57     93%     29.89        
Jun 05 15:16 WSW 8 6 Haze BKN015 69 59     70%     29.87